GFSSW_850_temp_333.txt.gz
Temp
11 11 11 11 11 11 11 11 12 12 12 12 11 10 10 10 10 10 11 12 11 12 12 12 12 12 12 12 13 13 9 9 13 16 15 16 16 16 16 16 15 14 15 15 12
10 11 11 11 11 10 10 10 10 11 11 11 11 9 10 9 9 10 13 11 11 12 12 12 12 12 12 12 13 10 7 11 14 15 14 15 15 15 15 15 14 13 14 13 12
8 9 9 9 10 10 10 10 9 10 10 10 10 8 9 8 8 12 13 12 11 11 12 12 12 12 12 12 12 11 9 12 14 14 14 13 14 15 14 14 14 14 12 12 12
5 5 5 5 5 5 7 8 9 9 9 9 9 9 8 7 8 12 12 12 12 12 12 12 12 12 11 10 13 11 12 13 14 14 14 13 13 13 14 14 15 14 13 12 11
4 4 4 3 3 4 4 5 6 7 8 8 8 7 6 6 8 11 11 12 11 11 12 11 12 12 10 11 12 10 11 14 14 13 13 13 12 11 13 14 14 13 13 13 12
2 2 3 3 3 3 3 4 4 5 7 7 7 5 5 5 11 10 11 11 11 11 11 11 12 12 12 11 11 12 12 12 13 12 13 12 11 12 13 13 14 13 13 13 12
2 1 1 1 2 3 4 4 4 4 5 6 7 5 5 8 11 10 10 10 10 10 11 11 11 11 11 11 11 12 11 9 10 12 11 12 10 9 13 13 13 13 12 12 12
1 1 1 2 3 3 4 4 4 5 5 5 6 5 5 10 11 9 9 10 10 10 10 10 11 11 10 11 11 10 10 8 10 11 11 12 7 10 13 11 12 12 12 12 12
1 1 2 3 3 4 3 4 5 6 5 5 4 5 6 9 9 10 9 9 9 9 9 10 10 10 10 7 7 8 6 7 9 11 9 9 8 11 12 12 11 12 12 12 11
1 1 2 3 3 4 3 4 6 7 6 6 5 5 7 8 9 9 9 9 9 9 9 9 9 6 6 5 4 6 7 8 9 10 9 8 8 9 11 12 12 12 11 11 10
1 1 1 2 3 3 3 4 4 5 5 5 6 6 9 9 9 9 9 9 9 8 6 8 5 4 5 6 7 8 9 9 9 10 9 7 7 8 9 10 9 8 8 8 8
0 1 2 2 3 3 3 2 2 2 3 4 5 6 6 8 8 9 9 9 8 6 7 7 5 6 7 8 8 8 8 8 9 10 9 8 7 7 8 8 6 5 5 5 5
1 2 2 2 3 3 2 2 2 2 2 4 5 5 7 7 8 9 9 9 7 6 6 5 8 9 8 8 9 8 7 8 8 9 8 8 5 3 5 4 3 3 4 4 4
1 2 2 1 1 1 1 1 2 2 1 4 6 7 7 8 8 9 9 9 8 8 7 8 9 10 9 9 7 7 9 9 9 6 4 7 2 4 5 2 3 2 2 2 3
1 2 2 1 0 1 0 1 1 1 -2 8 8 9 9 8 9 9 9 9 7 9 7 7 8 8 8 9 9 7 7 7 8 4 4 5 1 3 4 3 3 1 2 2 2
1 2 1 1 1 1 0 1 1 1 -3 7 7 7 7 8 8 8 8 9 8 8 9 8 9 8 8 6 7 6 6 6 4 3 -2 0 3 4 3 2 3 1 2 2 2
2 2 1 1 1 1 1 1 1 1 5 5 4 3 6 6 6 6 5 4 4 3 4 7 7 7 8 5 6 5 3 1 3 3 1 2 3 3 6 3 0 -3 0 1 2
2 2 1 1 1 1 1 -1 -2 2 3 4 4 3 4 5 4 5 4 3 6 4 3 5 5 6 7 6 4 4 3 1 3 1 4 5 1 3 1 -1 1 1 1 2 1
2 3 1 1 1 0 1 -4 1 3 4 6 6 4 3 5 4 4 4 3 4 4 4 4 4 5 5 6 5 5 2 4 0 1 1 3 4 3 1 -0 -1 -0 1 1 0
2 1 1 1 1 0 -1 0 3 4 5 5 4 4 2 4 3 4 4 3 3 3 3 2 3 5 5 6 5 4 4 2 -1 -1 0 4 4 2 1 0 -1 -2 -0 0 -0
1 0 2 1 1 0 0 -0 3 4 5 4 3 2 4 2 3 4 3 3 3 4 3 2 1 3 4 4 3 2 -1 2 1 2 -1 1 3 -3 -2 -4 -3 -5 1 0 -1
0 -3 2 2 -0 -0 -0 1 2 4 5 3 4 3 3 3 3 3 3 3 3 4 2 3 1 2 3 3 4 4 3 2 1 -1 -2 -1 2 -3 -4 -5 -2 -0 -1 -2 -3
-1 -0 1 1 -2 -2 -0 1 2 3 4 2 3 4 4 3 2 3 2 2 2 2 0 2 1 -0 3 2 2 4 4 2 -0 -2 -0 1 2 -1 -2 -5 -1 -1 -2 -3 -4
-1 -2 1 0 -0 -1 -0 0 1 4 4 3 4 4 3 3 3 2 2 2 1 2 3 3 1 -1 -0 -1 -2 -2 -2 2 0 -1 -3 -1 2 2 1 -2 -2 -2 -3 -4 -4
-1 -1 -1 -3 -2 -2 -1 0 1 1 2 2 2 2 1 -2 0 2 1 1 1 2 0 -2 -2 -4 -0 0 -0 0 -2 -3 -3 0 -0 -2 -2 -1 -1 -3 -3 -3 -4 -4 -4
-1 -1 -1 -1 -1 -2 0 -0 0 -0 1 1 1 1 1 1 0 0 -1 0 1 -1 -3 -2 -0 -2 -3 2 0 1 1 0 1 3 2 2 2 2 -2 -2 -4 -4 -4 -4 -5
-1 -2 -1 -2 -4 -4 -1 -0 -0 -0 0 1 1 1 1 1 1 1 1 0 -1 -3 -1 0 -6 -3 -5 0 -5 -3 -4 -2 -1 -1 1 0 1 1 -1 -1 -4 -4 -5 -5 -5

GFSSW_850_temp_339.txt.gz
Temp
5 5 6 6 6 5 5 4 5 5 5 7 9 10 10 10 11 12 12 15 14 13 11 11 12 12 12 12 12 11 8 8 11 11 14 14 14 14 14 14 14 14 14 14 12
5 4 3 3 2 3 3 4 4 4 4 4 5 6 8 8 9 12 14 14 14 12 10 11 11 11 11 11 12 9 6 9 10 12 13 13 14 14 14 13 13 13 13 12 11
3 2 2 2 2 2 2 2 2 2 2 3 3 4 4 6 7 12 13 12 12 10 10 10 11 11 11 11 10 9 8 9 12 13 14 13 14 14 12 12 13 13 12 11 11
2 2 2 2 2 2 2 2 2 2 2 2 2 3 4 4 5 12 12 12 12 10 9 9 10 10 8 8 10 9 9 11 12 13 13 13 14 13 13 13 14 15 14 11 11
2 2 2 2 2 2 2 2 3 5 3 3 2 2 4 4 5 11 12 11 10 9 9 9 10 10 8 8 10 8 10 11 12 12 12 12 12 12 13 14 14 14 13 12 11
2 1 1 1 2 3 4 4 5 6 5 5 3 2 3 3 7 8 9 9 9 9 10 10 10 11 10 9 8 10 10 11 11 12 12 10 10 11 13 13 13 13 13 13 12
1 1 1 3 4 4 5 4 5 6 6 5 4 2 2 4 8 7 8 8 9 10 10 10 11 11 11 10 11 10 10 9 9 10 10 11 9 7 13 13 13 12 13 12 12
1 1 1 3 4 4 4 5 6 6 5 5 4 3 2 4 5 7 7 8 8 9 10 10 10 10 10 10 9 9 8 7 9 8 10 11 8 10 11 11 11 11 12 12 11
1 1 2 3 4 4 5 5 5 6 4 5 4 2 3 5 5 7 7 6 8 8 9 9 10 9 9 6 6 5 5 6 8 8 9 8 8 8 10 11 10 10 11 11 10
1 2 2 3 4 3 3 5 5 4 3 4 3 2 5 6 6 6 7 7 7 8 8 9 8 4 3 5 6 5 6 6 7 9 7 7 7 8 10 9 8 9 9 9 10
1 3 2 3 4 3 2 3 1 3 2 0 3 3 4 6 5 6 7 7 7 8 5 6 5 5 4 6 6 6 6 6 7 8 8 6 7 7 8 9 7 7 8 8 8
3 3 2 3 3 2 2 1 0 -0 1 2 2 2 3 3 3 5 6 7 8 6 5 4 4 5 6 6 6 6 6 6 7 8 7 6 6 6 7 7 6 7 6 6 6
2 3 3 3 3 2 1 1 0 0 1 2 4 4 5 4 3 4 5 6 7 5 4 4 7 6 6 5 6 5 6 6 6 8 7 7 5 4 3 3 3 3 5 4 5
2 2 3 2 2 1 0 0 1 0 1 3 5 6 6 5 4 5 5 4 5 5 4 5 6 7 6 6 7 4 5 7 6 7 4 4 2 4 4 1 1 0 1 2 3
2 3 3 2 2 1 0 1 1 1 -3 5 6 6 6 5 7 5 5 5 6 5 6 5 6 5 6 5 6 6 7 5 6 4 5 4 0 3 3 1 2 -0 0 1 2
2 3 3 2 2 1 0 1 1 -3 -4 3 5 5 4 4 6 6 4 2 5 6 6 5 7 6 6 5 7 5 4 3 2 3 -0 -1 2 3 1 1 2 -0 0 1 2
3 3 3 2 1 1 1 1 -3 -4 3 4 4 4 4 3 4 3 3 3 3 3 4 5 5 6 6 5 6 4 4 1 2 1 -0 -0 1 2 3 2 -1 -3 0 1 1
3 3 2 1 1 1 1 -3 -4 1 1 3 3 4 3 3 3 2 3 3 2 2 -1 4 4 4 5 6 4 5 4 -1 -0 -1 1 2 0 3 0 -2 -2 1 1 1 1
3 3 2 2 2 2 1 -5 -3 -2 2 2 3 2 1 3 2 3 2 3 3 3 2 3 3 3 4 5 6 4 2 3 -1 -1 0 2 3 1 -0 -1 -3 -2 0 1 1
2 2 2 2 2 2 -3 -0 0 3 2 2 2 2 2 2 1 3 0 2 3 2 2 1 1 2 5 5 4 5 3 3 -1 -1 1 2 3 2 0 -1 -2 -3 0 2 2
2 2 2 2 2 1 -2 -1 0 2 1 2 2 2 2 2 2 2 2 2 2 2 1 0 1 2 3 4 3 3 -1 0 0 -1 -2 -1 2 -3 -4 -4 -4 -5 1 2 2
1 -5 2 2 -2 -4 -4 -1 -0 1 2 2 2 2 2 2 2 2 2 2 0 1 2 1 -0 1 2 2 3 3 3 2 -0 -2 -2 -3 2 -4 -7 -7 -3 0 1 1 0
-1 -1 1 1 -6 -6 -2 -0 -0 0 0 1 1 1 2 2 -0 2 2 1 1 1 1 1 -2 -0 1 1 2 4 3 -0 -3 -4 -2 -1 1 -2 -2 -6 -2 1 1 0 -1
-1 -5 -0 -1 -2 -5 -4 -1 -0 1 1 1 1 1 2 1 2 2 2 2 1 2 2 1 -3 -3 -1 -2 -3 -2 -2 1 -0 0 -5 -2 0 2 0 -4 -2 1 0 -1 -2
-1 -4 -2 -6 -4 -5 -5 -3 -1 -1 0 0 1 2 1 -1 -1 1 2 2 1 -0 -2 -3 -2 -3 -0 1 -1 -0 -4 -5 -4 -1 1 -2 -2 -1 -2 -4 -1 1 0 -2 -3
-1 -2 -2 -3 -3 -6 -6 -5 -1 -1 -1 0 -0 1 0 -0 0 -0 -1 -1 -0 -3 -5 -6 0 -4 -4 -1 -2 -1 0 -2 -3 -0 -2 -3 -3 -2 -1 -2 -2 -0 -2 -2 -5
-2 -2 -3 -3 -6 -8 -6 -2 -1 -2 -0 -1 -0 -0 -0 -0 -1 -2 -2 -3 -3 -5 -7 -8 -5 -7 -5 -3 -7 -3 -6 -4 -3 -4 -1 -1 1 -2 -2 -3 -2 -1 -3 -4 -5

GFSSW_850_temp_342.txt.gz
Temp
6 5 4 3 3 3 3 3 3 3 3 3 3 3 4 5 9 10 11 14 13 13 11 11 11 11 11 11 11 11 8 7 11 10 13 13 13 13 14 13 13 13 13 13 11
2 2 2 3 2 2 2 2 2 2 2 3 3 3 3 4 5 10 13 12 12 12 11 10 10 10 11 11 11 8 6 8 10 11 13 13 13 14 13 12 12 12 13 12 10
2 2 2 2 2 2 2 2 2 4 3 2 3 2 3 3 4 10 9 8 10 10 8 9 10 10 10 10 9 7 7 8 11 12 13 13 13 13 11 12 13 13 12 10 10
2 2 2 2 2 2 2 4 6 6 6 5 2 4 2 3 4 10 10 9 9 9 8 8 9 10 7 7 9 8 8 9 12 12 13 13 13 12 13 13 14 15 15 12 11
2 1 1 2 1 2 3 4 6 7 6 6 5 2 3 2 3 11 10 9 8 8 8 8 9 9 8 7 8 8 9 10 12 11 12 12 12 12 12 13 13 14 13 13 12
1 1 2 2 3 4 4 5 6 7 7 6 5 3 3 2 7 7 6 7 8 8 8 8 9 10 9 8 8 9 9 10 10 11 11 10 11 11 13 13 13 13 13 13 13
1 1 2 2 4 4 5 5 6 6 6 6 5 4 3 4 6 6 7 7 7 7 8 8 9 10 10 9 10 10 9 9 8 9 10 10 9 8 13 13 12 12 13 12 12
1 1 3 4 4 4 4 5 6 6 6 5 4 4 3 4 5 5 6 6 7 7 7 8 9 10 10 9 8 8 7 7 8 8 10 10 8 9 11 10 11 12 12 11 10
1 1 3 4 4 4 4 4 5 4 3 4 4 3 3 5 5 5 5 6 7 7 7 8 9 9 9 6 6 4 5 5 8 7 8 8 8 9 9 10 10 11 11 10 9
1 2 3 4 4 4 3 4 4 3 4 4 2 2 4 5 5 5 5 6 6 6 7 8 7 5 5 7 6 5 5 6 7 8 7 7 6 8 9 8 8 9 9 9 9
2 3 3 3 4 3 3 3 1 1 0 0 1 1 3 4 3 6 5 5 6 7 6 6 5 5 5 5 6 4 5 6 6 7 8 6 6 6 8 7 5 6 7 7 8
3 3 3 3 4 2 2 0 -0 -0 1 3 4 2 4 3 1 3 4 5 6 6 5 5 3 5 4 5 6 6 5 5 6 7 6 6 6 5 7 6 6 6 6 6 6
3 3 3 3 4 2 2 0 -0 0 -0 2 5 4 5 4 2 3 3 5 6 5 5 5 6 5 5 5 5 5 5 6 6 7 6 6 5 3 4 3 3 4 5 5 5
3 3 3 3 3 2 1 1 0 0 1 2 5 5 5 5 3 4 3 2 3 4 4 5 6 5 4 5 5 4 5 7 6 7 4 4 2 4 4 1 2 1 2 3 3
3 3 3 3 2 1 1 1 1 0 -4 4 5 6 5 4 5 3 4 2 2 4 4 4 5 4 4 5 6 5 5 5 5 2 4 4 1 3 2 1 2 -1 0 1 1
2 3 3 2 2 1 2 2 1 -3 -4 2 4 4 4 4 4 3 3 2 2 5 5 5 6 5 5 5 6 4 4 3 2 2 1 -1 2 3 1 0 3 -0 -0 0 1
3 3 3 2 1 2 2 1 -3 -4 3 3 2 3 3 2 3 2 3 3 3 2 2 5 4 5 5 3 5 5 3 1 2 1 0 -1 1 2 4 2 -3 -5 -1 0 1
3 3 2 2 2 2 2 -3 -4 1 -1 2 2 2 3 2 3 3 3 3 2 2 1 2 2 4 4 5 3 3 3 -0 -0 -1 0 1 -0 3 0 -2 -2 -1 0 -0 1
3 3 3 2 3 2 2 -4 -3 -3 1 1 2 1 0 3 2 3 2 3 3 2 1 -0 2 3 3 4 5 4 2 2 -2 -2 -1 1 2 2 0 -2 -4 -3 -1 0 1
3 3 2 2 3 3 -3 -1 -0 1 1 1 1 2 2 2 1 1 1 2 3 2 2 0 -0 1 3 5 4 4 3 3 -0 -1 1 1 2 2 1 -1 -3 -5 -1 1 2
3 2 2 2 2 1 -4 -3 -1 0 0 1 1 1 2 2 2 2 1 2 1 2 1 -0 0 0 2 3 2 3 -0 0 1 -1 -3 -2 2 -4 -5 -6 -4 -5 1 1 1
1 -4 2 2 -2 -5 -5 -3 -0 0 0 1 1 1 1 2 1 2 2 1 -0 1 2 1 -1 -3 2 2 2 3 3 2 -0 -2 -2 -3 1 -4 -7 -9 -4 -1 1 2 2
-1 -0 1 1 -6 -7 -4 -2 -0 -0 0 0 0 0 1 1 1 2 2 0 -0 1 1 1 -3 -1 2 2 2 3 2 -1 -3 -5 -2 -1 1 -2 -3 -7 -3 1 2 2 1
-1 -5 -0 -1 -2 -5 -4 -3 -1 1 0 0 0 1 1 1 1 1 2 1 0 0 0 0 -4 -2 1 -1 -3 -2 -2 1 -1 -1 -4 -2 1 3 1 -4 -3 1 2 1 0
-1 -5 -3 -7 -6 -5 -6 -1 -2 -1 -0 -1 0 1 0 -1 -1 0 1 0 1 -1 -2 -2 -2 -3 -1 -0 -2 -1 -5 -5 -3 -1 0 -2 -2 -2 -2 -4 -1 2 1 0 -2
-1 -2 -3 -3 -4 -6 -8 -6 -2 -2 -2 -1 0 -0 -0 -1 -1 -1 -1 -1 -1 -2 -5 -5 -1 -4 -4 -1 -3 -1 0 -3 -4 -1 -2 -5 -3 -3 -1 -1 -1 0 -2 -2 -2
-2 -2 -3 -3 -6 -7 -7 -4 -3 -3 -1 -1 -1 -1 -3 -1 -1 -2 -3 -3 -4 -5 -7 -9 -6 -6 -4 -4 -7 -3 -6 -5 -4 -5 -2 -2 0 -1 -1 -2 -1 -1 -1 -1 -1

GFSSW_850_temp_345.txt.gz
Temp
8 6 5 3 3 4 6 7 7 7 7 6 5 3 3 3 8 7 9 12 11 11 11 10 10 10 10 10 11 10 9 9 11 10 13 13 13 13 13 12 12 12 13 13 11
3 2 2 2 2 4 5 7 8 7 7 7 4 3 3 3 6 9 10 10 9 8 9 10 10 9 10 10 10 9 8 9 10 10 12 12 13 13 13 11 11 11 12 11 10
2 2 2 2 3 5 6 6 7 7 7 7 5 4 2 3 5 8 7 6 7 7 7 8 10 9 9 9 9 8 8 9 10 12 13 12 12 12 11 11 12 12 12 9 9
2 1 1 1 2 4 6 7 7 7 7 7 6 5 3 2 5 9 8 9 9 8 7 7 8 9 7 7 9 8 8 9 11 12 12 11 13 12 12 13 14 14 14 11 9
2 2 2 2 4 6 6 6 7 7 7 7 6 2 2 3 3 9 8 8 8 7 6 7 7 8 7 7 8 7 9 9 11 11 11 12 12 12 12 13 14 14 12 10 8
1 1 1 3 5 5 6 6 6 7 7 7 5 2 2 3 6 7 6 6 6 6 7 7 8 9 8 8 9 9 9 10 10 10 11 11 10 12 12 13 13 13 12 11 10
1 1 2 4 4 5 5 6 6 6 7 5 5 2 2 3 5 5 5 5 6 6 6 7 8 9 9 7 9 9 8 8 8 9 10 10 10 9 12 12 12 13 12 11 10
1 2 2 4 4 4 5 5 6 5 5 4 4 4 3 4 4 4 5 5 5 6 6 7 7 8 9 9 8 7 7 8 8 7 9 11 9 9 11 10 10 12 11 10 10
1 2 2 4 4 5 4 5 5 5 4 3 3 3 3 5 5 4 4 4 4 5 6 6 6 7 8 6 6 4 6 6 8 7 8 8 8 8 9 9 10 10 10 9 9
1 2 3 4 4 4 4 4 5 4 4 3 3 3 4 5 5 5 5 5 5 5 5 6 7 5 5 7 6 5 5 5 7 7 7 7 7 7 8 9 9 9 8 9 8
2 2 3 4 4 4 3 4 1 2 1 1 3 1 3 5 4 3 3 4 4 5 4 5 4 5 5 5 6 5 5 6 6 7 7 6 6 7 7 6 6 6 7 7 7
3 3 3 4 4 3 3 0 -1 -0 0 4 4 3 5 3 2 4 4 3 4 4 5 4 4 4 5 6 6 6 5 5 6 7 6 6 7 6 6 6 5 5 5 5 6
3 3 3 4 3 3 2 1 -0 -1 -0 2 5 3 5 3 3 3 3 3 3 4 4 3 5 5 5 4 5 5 6 5 7 7 6 6 6 5 4 3 3 4 4 4 5
2 3 3 3 3 2 1 1 1 0 -2 2 4 5 5 4 3 3 3 2 2 3 3 4 5 5 4 5 5 5 6 6 6 6 5 4 5 5 4 2 3 2 2 3 3
3 3 3 3 2 2 2 1 1 -0 -3 4 4 5 4 4 4 3 2 2 3 3 3 4 4 3 4 5 6 5 5 5 5 4 4 4 4 6 3 3 3 1 0 1 1
3 3 3 3 3 2 2 1 0 -3 -4 2 4 3 2 4 3 2 2 2 1 3 4 5 5 5 5 5 6 4 3 3 2 4 5 0 4 6 4 2 2 -1 -0 -0 -0
3 3 2 3 2 3 2 1 -3 -3 2 3 2 2 1 2 3 3 2 2 3 3 3 3 4 5 4 3 4 4 3 3 4 4 3 -1 2 5 3 1 -1 -3 -1 -1 -0
3 3 3 3 3 3 2 -3 -4 0 -2 1 1 1 2 2 3 1 3 3 2 2 1 3 3 3 4 4 3 4 4 2 3 2 3 1 1 5 -0 -3 -3 -2 -1 -1 -0
3 3 3 3 3 3 2 -5 -3 -4 0 1 2 1 -1 2 2 1 1 2 3 2 3 1 2 1 3 4 5 3 3 2 -1 -1 1 2 3 2 -1 -2 -4 -4 -2 -1 0
3 3 3 3 3 3 -3 -2 -1 -0 -0 1 1 1 1 1 1 2 1 1 2 2 1 0 2 1 2 3 3 4 3 3 0 0 0 2 2 4 2 -1 -3 -5 -2 -0 1
3 2 2 3 3 2 -5 -4 -2 0 -1 0 1 1 1 1 1 2 1 2 1 2 1 0 -2 1 2 3 2 3 2 1 1 -1 0 2 4 -1 -3 -5 -3 -4 -0 1 2
1 -4 2 3 -2 -6 -6 -4 -1 -0 -0 0 -0 1 0 1 1 1 1 1 -0 0 1 -0 -2 -0 1 2 1 3 3 2 2 0 -4 -1 3 -3 -5 -7 -4 -1 1 1 1
-0 0 1 2 -7 -7 -4 -3 -1 -1 -0 -1 -1 0 0 0 1 1 1 0 -0 1 1 0 -2 0 2 2 2 2 2 -1 -2 -3 -2 2 3 -1 -3 -6 -3 0 2 2 1
0 -6 -0 -1 -4 -6 -4 -3 -2 -0 -0 -2 -1 -0 -0 0 1 0 1 1 -0 -1 -0 -1 -3 -3 -1 -1 -2 -2 -2 0 -0 1 -2 -1 2 3 1 -2 -3 -1 1 1 0
-0 -5 -4 -7 -6 -5 -6 -5 -2 -2 -1 -1 -0 0 -0 -4 -2 -1 -0 -0 1 -1 -2 -2 -2 -2 -2 -1 -2 -1 -4 -4 -3 -1 2 -1 -1 -2 -1 -3 -2 0 -0 -0 -1
-1 -2 -3 -3 -5 -6 -8 -7 -4 -3 -3 -1 -2 -1 -1 -1 -1 -2 -2 -2 -1 -2 -6 -4 -1 -5 -4 -1 -3 -1 -1 -3 -4 -1 -2 -4 -2 -2 -2 -2 -2 -1 -1 -0 -1
-1 -2 -3 -4 -6 -8 -8 -5 -3 -3 -2 -2 -2 -1 -1 -1 -2 -2 -3 -4 -5 -5 -5 -8 -6 -5 -3 -4 -7 -2 -5 -4 -3 -5 -2 -1 1 -2 -1 -1 -2 -1 -1 -2 -2